Weather History for KBIS - April, 2014

Change the Weather History Date:

Sunday, April 13, 2014

  Actual Average Record
Temperature  
Mean Temperature 28 °F 43 °F  
Max Temperature 37 °F 56 °F 92 °F (2003)
Min Temperature 19 °F 30 °F 9 °F (1950)
Degree Days  
Heating Degree Days 37 22  
Month to date heating degree days 354 324  
Since 1 July heating degree days 8370 7843  
Cooling Degree Days 0 0  
Month to date cooling degree days 0 0  
Year to date cooling degree days 0 0  
Moisture  
Dew Point 18 °F    
Average Humidity 60    
Maximum Humidity 85    
Minimum Humidity 35    
Precipitation  
Precipitation T in 0.05 in 0.58 in (2012)
Month to date precipitation 0.20 0.48  
Year to date precipitation 1.59 2.29  
Snow  
Snow 0.00 in 0.10 in 6.60 in (1986)
Month to date snowfall 1.9 2.5  
Since 1 July snowfall 38.2 49.1  
Snow Depth 0.00 in    
Sea Level Pressure  
Sea Level Pressure 30.21 in    
Wind  
Wind Speed 15 mph (North)    
Max Wind Speed 28 mph    
Max Gust Speed 36 mph    
Visibility 9 miles    
Events Rain    
T = Trace of Precipitation, MM = Missing Value Source: NWS Daily Summary

Daily Weather History Graph

Daily Weather History Graph

Search for Another Location

Airport or City:

Trip Planner

Search our weather history database for the weather conditions in past years. The results will help you decide how hot, cold, wet, or windy it might be!

Date:

Astronomy

Apr. 13, 2014 Rise Set
Actual Time 6:59 AM CDT 8:28 PM CDT
Civil Twilight 6:27 AM CDT 9:00 PM CDT
Nautical Twilight 5:49 AM CDT 9:38 PM CDT
Astronomical Twilight 5:08 AM CDT 10:20 PM CDT
Moon 7:04 PM CDT (4/13) 6:05 AM CDT (4/13)
Length of Visible Light 14h 32m
Length of Day
13h 29m
Waxing Gibbous, 97% of the Moon is Illuminated
Apr 13
Waxing Gibbous
Apr 15
Full
Apr 22
Last Quarter
Apr 29
New
May 6
First Quarter

Hourly Weather History & Observations

Time (CDT) Temp. Windchill Dew Point Humidity Pressure Visibility Wind Dir Wind Speed Gust Speed Precip Events Conditions
12:40 AM 33.1 °F 23.0 °F 28.9 °F 85% 30.03 in 7.0 mi NNW 15.0 mph 24.2 mph N/A   Overcast
12:52 AM 33.1 °F 22.6 °F 28.9 °F 85% 30.07 in 8.0 mi NW 16.1 mph 26.5 mph N/A   Overcast
1:12 AM 33.1 °F 21.9 °F 28.9 °F 85% 30.04 in 4.0 mi NNW 18.4 mph - N/A   Overcast
1:21 AM 32.0 °F 21.2 °F 28.9 °F 88% 30.04 in 4.0 mi North 16.1 mph 24.2 mph 0.00 in Rain Light Freezing Rain
1:32 AM 32.0 °F 20.8 °F 28.9 °F 88% 30.04 in 6.0 mi North 17.3 mph - 0.00 in   Overcast
1:34 AM 32.0 °F 20.8 °F 28.9 °F 88% 30.04 in 6.0 mi North 17.3 mph - 0.00 in Rain Light Freezing Rain
1:52 AM 32.0 °F 23.6 °F 28.0 °F 85% 30.08 in 10.0 mi North 10.4 mph - 0.00 in   Overcast
2:52 AM 30.9 °F 18.7 °F 24.1 °F 76% 30.09 in 10.0 mi North 19.6 mph 26.5 mph N/A   Overcast
3:52 AM 30.9 °F 19.4 °F 23.0 °F 72% 30.10 in 10.0 mi NNW 17.3 mph 24.2 mph N/A   Overcast
4:52 AM 28.0 °F 13.9 °F 19.9 °F 72% 30.13 in 10.0 mi North 23.0 mph 29.9 mph N/A   Overcast
5:50 AM 26.6 °F 13.1 °F 15.8 °F 64% 30.12 in 10.0 mi North 19.6 mph 32.2 mph N/A   Scattered Clouds
5:52 AM 26.1 °F 13.1 °F 15.1 °F 63% 30.18 in 10.0 mi North 17.3 mph 28.8 mph N/A   Partly Cloudy
6:52 AM 23.0 °F 10.1 °F 15.1 °F 72% 30.22 in 10.0 mi North 15.0 mph - N/A   Clear
7:52 AM 23.0 °F 11.1 °F 14.0 °F 68% 30.26 in 10.0 mi North 12.7 mph - N/A   Clear
8:52 AM 25.0 °F 11.7 °F 14.0 °F 63% 30.28 in 10.0 mi North 17.3 mph 25.3 mph N/A   Partly Cloudy
9:52 AM 27.0 °F 12.2 °F 12.0 °F 53% 30.28 in 10.0 mi North 24.2 mph 32.2 mph N/A   Clear
10:24 AM 28.9 °F 17.3 °F 14.0 °F 54% 30.23 in 10.0 mi NNW 16.1 mph 24.2 mph N/A   Mostly Cloudy
10:52 AM 28.9 °F 16.5 °F 12.9 °F 51% 30.29 in 10.0 mi North 18.4 mph 28.8 mph N/A   Mostly Cloudy
11:34 AM 30.9 °F 18.7 °F 14.0 °F 50% 30.22 in 10.0 mi North 19.6 mph 27.6 mph N/A   Overcast
11:52 AM 30.9 °F 18.4 °F 14.0 °F 50% 30.30 in 10.0 mi NNW 20.7 mph 28.8 mph N/A   Overcast
12:52 PM 32.0 °F 21.2 °F 15.1 °F 50% 30.28 in 10.0 mi North 16.1 mph 23.0 mph N/A   Overcast
1:52 PM 33.1 °F 20.9 °F 16.0 °F 50% 30.28 in 10.0 mi NW 21.9 mph - N/A   Mostly Cloudy
2:52 PM 35.1 °F 23.3 °F 16.0 °F 46% 30.30 in 10.0 mi NW 23.0 mph 28.8 mph N/A   Mostly Cloudy
3:52 PM 36.0 °F 25.0 °F 15.1 °F 43% 30.28 in 10.0 mi NNW 20.7 mph 28.8 mph N/A   Partly Cloudy
4:52 PM 36.0 °F 24.7 °F 12.9 °F 39% 30.28 in 10.0 mi North 21.9 mph 29.9 mph N/A   Partly Cloudy
5:52 PM 35.1 °F 25.2 °F 12.0 °F 39% 30.29 in 10.0 mi NNW 16.1 mph 28.8 mph N/A   Clear
6:52 PM 35.6 °F 24.8 °F 10.4 °F 35% 30.23 in 10.0 mi North 19.6 mph 24.2 mph N/A   Partly Cloudy
7:52 PM 33.1 °F 22.2 °F 10.9 °F 40% 30.31 in 10.0 mi North 17.3 mph - N/A   Clear
8:52 PM 30.0 °F 23.2 °F 12.0 °F 47% 30.31 in 10.0 mi North 6.9 mph - N/A   Clear
9:52 PM 25.0 °F 19.3 °F 12.9 °F 60% 30.33 in 10.0 mi NE 4.6 mph - N/A   Clear
10:52 PM 23.0 °F 18.4 °F 12.9 °F 65% 30.34 in 10.0 mi NE 3.5 mph - N/A   Clear
11:52 PM 23.0 °F - 12.9 °F 65% 30.33 in 10.0 mi Calm Calm - N/A   Clear